Temp
-11 -11 -11 -11 -11 -11 -11 -11 -11 -12 -12 -12 -12 -12 -12 -12 -12 -12 -12 -13 -13 -13 -13 -13 -13 -13 -13 -13 -14 -14 -14 -13 -13 -13 -12 -13 -14 -14 -14 -13 -13 -13 -13 -11 -12
-11 -11 -11 -11 -11 -11 -11 -12 -12 -12 -12 -12 -12 -12 -12 -12 -12 -13 -13 -14 -14 -14 -14 -14 -14 -14 -13 -14 -14 -14 -14 -14 -14 -14 -13 -13 -14 -14 -14 -13 -13 -13 -13 -12 -11
-11 -11 -12 -12 -12 -12 -12 -12 -13 -13 -12 -12 -12 -12 -13 -13 -13 -13 -13 -13 -14 -14 -14 -14 -14 -14 -14 -14 -15 -15 -14 -15 -15 -14 -14 -13 -13 -13 -13 -13 -13 -13 -11 -12 -12
-12 -12 -12 -12 -13 -13 -13 -13 -13 -13 -13 -12 -13 -13 -14 -14 -14 -14 -14 -15 -15 -16 -17 -18 -17 -17 -16 -16 -17 -16 -16 -16 -15 -15 -15 -14 -13 -13 -13 -13 -14 -14 -12 -12 -12
-12 -12 -12 -13 -13 -13 -13 -13 -13 -13 -13 -13 -13 -14 -14 -14 -14 -15 -15 -16 -18 -20 -21 -22 -22 -23 -22 -22 -21 -20 -19 -18 -17 -16 -16 -15 -14 -14 -13 -13 -14 -14 -13 -12 -12
-12 -12 -13 -13 -13 -13 -13 -13 -13 -13 -13 -14 -14 -14 -14 -15 -16 -16 -18 -20 -22 -23 -24 -25 -25 -25 -25 -25 -25 -24 -23 -21 -19 -18 -17 -16 -15 -14 -13 -14 -15 -14 -14 -14 -12
-13 -13 -13 -13 -13 -13 -13 -14 -14 -14 -14 -14 -15 -15 -16 -17 -18 -19 -21 -23 -24 -25 -25 -25 -26 -25 -26 -25 -25 -25 -25 -24 -22 -21 -20 -19 -16 -14 -14 -16 -16 -16 -14 -14 -13
-13 -13 -13 -14 -14 -14 -14 -14 -14 -14 -14 -15 -15 -16 -18 -19 -20 -21 -23 -24 -25 -25 -25 -26 -26 -26 -26 -26 -26 -26 -26 -25 -24 -24 -22 -22 -16 -15 -17 -16 -15 -16 -15 -14 -14
-13 -13 -13 -14 -14 -14 -14 -14 -15 -15 -15 -16 -16 -18 -19 -20 -21 -23 -24 -24 -25 -25 -25 -25 -26 -26 -26 -27 -27 -27 -27 -27 -26 -26 -25 -24 -17 -17 -18 -17 -16 -15 -15 -14 -15
-14 -14 -14 -14 -14 -14 -14 -15 -15 -16 -16 -16 -17 -18 -19 -21 -22 -23 -24 -24 -23 -24 -24 -24 -24 -25 -26 -26 -26 -27 -27 -26 -26 -26 -26 -25 -20 -20 -19 -18 -16 -16 -16 -14 -15
-14 -14 -14 -14 -14 -14 -14 -15 -15 -15 -16 -17 -18 -19 -20 -21 -23 -23 -23 -23 -23 -23 -23 -24 -24 -25 -24 -25 -26 -26 -26 -26 -26 -26 -27 -26 -25 -23 -19 -18 -16 -16 -15 -14 -14
-14 -14 -14 -15 -14 -15 -15 -15 -15 -15 -16 -18 -19 -20 -21 -22 -22 -24 -23 -22 -23 -23 -23 -24 -24 -25 -25 -26 -26 -26 -26 -25 -25 -26 -27 -27 -26 -26 -23 -19 -17 -16 -15 -14 -14
-14 -15 -15 -15 -14 -15 -15 -15 -15 -16 -17 -18 -19 -21 -21 -22 -22 -23 -22 -22 -22 -23 -23 -23 -24 -25 -25 -26 -27 -26 -26 -26 -25 -26 -26 -26 -26 -26 -24 -21 -18 -17 -15 -14 -14
-14 -15 -15 -15 -15 -15 -15 -15 -16 -16 -17 -18 -20 -21 -22 -23 -23 -23 -23 -22 -22 -23 -23 -23 -23 -23 -24 -25 -25 -25 -26 -26 -25 -25 -25 -26 -26 -25 -24 -23 -20 -17 -15 -15 -15
-15 -15 -15 -15 -15 -15 -16 -16 -16 -17 -17 -19 -20 -22 -23 -24 -23 -23 -22 -21 -21 -22 -23 -23 -22 -23 -24 -25 -25 -25 -25 -25 -25 -25 -25 -25 -26 -24 -25 -23 -21 -17 -15 -14 -14
-15 -15 -15 -15 -15 -15 -16 -16 -17 -17 -18 -19 -21 -22 -23 -24 -24 -23 -23 -22 -22 -22 -22 -23 -22 -22 -24 -25 -25 -25 -26 -25 -25 -25 -25 -25 -26 -25 -25 -23 -22 -20 -16 -14 -13
-15 -15 -15 -15 -16 -16 -16 -16 -17 -18 -19 -20 -21 -22 -23 -23 -24 -23 -22 -21 -21 -21 -22 -22 -21 -21 -23 -24 -25 -25 -25 -25 -25 -25 -24 -25 -26 -24 -25 -25 -22 -20 -17 -15 -14
-15 -15 -15 -16 -16 -16 -16 -16 -17 -17 -18 -20 -21 -23 -23 -23 -23 -22 -21 -21 -20 -21 -22 -21 -20 -22 -22 -23 -24 -24 -25 -25 -24 -25 -25 -25 -24 -24 -26 -25 -22 -21 -18 -16 -14
-15 -15 -15 -16 -16 -16 -16 -16 -18 -18 -19 -20 -21 -23 -23 -23 -22 -21 -20 -20 -20 -21 -21 -21 -22 -22 -22 -22 -23 -24 -24 -24 -24 -25 -24 -24 -23 -23 -23 -23 -22 -20 -18 -15 -14
-15 -15 -16 -16 -16 -16 -16 -17 -17 -18 -19 -20 -21 -23 -24 -24 -22 -21 -19 -20 -20 -21 -21 -22 -22 -22 -22 -23 -23 -24 -24 -24 -24 -24 -23 -23 -23 -23 -22 -22 -22 -20 -17 -15 -15
-15 -15 -16 -16 -16 -16 -17 -17 -17 -18 -19 -20 -22 -23 -24 -23 -20 -19 -19 -19 -20 -20 -21 -21 -22 -22 -22 -23 -23 -23 -24 -24 -24 -23 -23 -22 -22 -22 -22 -22 -21 -20 -18 -16 -15
-15 -15 -16 -16 -16 -16 -17 -17 -18 -18 -19 -20 -21 -23 -23 -21 -20 -19 -19 -19 -20 -21 -21 -21 -21 -21 -22 -22 -23 -23 -22 -21 -21 -22 -22 -23 -22 -22 -22 -21 -21 -20 -18 -17 -15
-15 -16 -16 -16 -16 -16 -17 -18 -18 -18 -19 -20 -21 -22 -21 -19 -19 -18 -19 -20 -21 -21 -21 -20 -20 -21 -22 -22 -22 -21 -20 -20 -20 -20 -21 -21 -21 -21 -20 -20 -20 -20 -19 -18 -16
-16 -16 -16 -16 -16 -17 -17 -17 -18 -18 -18 -19 -21 -21 -21 -19 -18 -19 -19 -20 -21 -20 -20 -21 -21 -22 -22 -22 -21 -21 -21 -20 -20 -19 -20 -20 -20 -20 -20 -20 -19 -18 -19 -18 -16
-16 -16 -16 -16 -16 -17 -17 -17 -17 -17 -18 -19 -21 -21 -20 -18 -18 -18 -19 -20 -20 -20 -20 -21 -22 -21 -22 -22 -22 -22 -21 -21 -20 -19 -19 -19 -19 -20 -20 -19 -20 -19 -18 -18 -16
-16 -16 -16 -16 -16 -17 -17 -17 -17 -17 -17 -19 -20 -20 -18 -18 -18 -19 -19 -19 -19 -20 -20 -20 -21 -21 -22 -22 -22 -22 -21 -21 -20 -19 -19 -19 -19 -20 -19 -20 -20 -18 -18 -18 -16
-16 -16 -16 -16 -16 -17 -17 -17 -17 -17 -18 -18 -19 -20 -19 -18 -18 -18 -19 -19 -19 -19 -20 -20 -20 -21 -22 -22 -21 -20 -20 -19 -19 -19 -19 -19 -19 -18 -20 -19 -18 -19 -17 -18 -16
Height
5798 5797 5795 5793 5790 5787 5784 5781 5778 5774 5770 5765 5761 5756 5751 5745 5738 5731 5726 5720 5714 5708 5705 5701 5696 5692 5690 5689 5685 5683 5687 5695 5698 5693 5698 5699 5702 5704 5711 5719 5723 5730 5736 5744 5750
5796 5795 5792 5789 5786 5783 5779 5774 5770 5767 5762 5757 5752 5746 5740 5733 5727 5718 5711 5704 5698 5691 5684 5680 5676 5671 5669 5667 5665 5662 5670 5677 5676 5676 5680 5681 5682 5690 5697 5710 5718 5721 5725 5734 5741
5794 5792 5788 5785 5781 5777 5772 5768 5764 5759 5753 5748 5742 5736 5728 5721 5713 5705 5696 5687 5677 5667 5659 5653 5648 5644 5642 5640 5640 5641 5648 5653 5656 5659 5662 5664 5671 5677 5687 5696 5705 5709 5714 5720 5730
5792 5788 5784 5779 5776 5772 5767 5762 5757 5751 5745 5739 5732 5725 5716 5708 5700 5687 5676 5664 5651 5640 5630 5622 5617 5613 5613 5611 5612 5613 5620 5628 5633 5640 5645 5649 5655 5663 5673 5688 5691 5698 5704 5709 5714
5789 5784 5779 5775 5770 5766 5761 5755 5750 5743 5737 5729 5722 5713 5704 5694 5683 5667 5653 5639 5625 5613 5603 5594 5590 5586 5586 5585 5584 5589 5594 5601 5606 5615 5622 5627 5637 5645 5664 5672 5676 5685 5690 5698 5707
5784 5780 5774 5769 5765 5761 5755 5749 5743 5735 5727 5719 5711 5700 5688 5676 5662 5648 5634 5618 5606 5597 5588 5580 5577 5574 5573 5572 5569 5570 5570 5577 5586 5596 5600 5607 5618 5628 5654 5653 5659 5666 5679 5684 5695
5780 5775 5770 5765 5759 5755 5750 5743 5736 5728 5718 5710 5699 5687 5672 5660 5645 5630 5617 5605 5594 5585 5580 5573 5569 5565 5562 5562 5558 5556 5555 5559 5568 5574 5577 5584 5597 5620 5628 5626 5639 5649 5661 5671 5685
5775 5770 5766 5761 5755 5749 5743 5736 5729 5719 5709 5698 5687 5674 5660 5646 5630 5616 5605 5595 5584 5578 5573 5568 5562 5558 5551 5549 5549 5545 5542 5546 5557 5553 5562 5561 5586 5605 5597 5609 5621 5633 5645 5657 5672
5771 5765 5760 5756 5750 5744 5737 5730 5722 5712 5700 5688 5677 5662 5650 5635 5620 5606 5595 5584 5578 5573 5567 5560 5554 5549 5544 5538 5535 5536 5533 5533 5536 5541 5542 5543 5563 5574 5572 5585 5604 5617 5630 5642 5657
5766 5761 5755 5750 5744 5738 5732 5725 5715 5705 5692 5681 5666 5652 5638 5625 5611 5599 5590 5581 5574 5568 5563 5555 5550 5544 5538 5531 5527 5526 5524 5526 5527 5537 5531 5532 5538 5546 5553 5566 5586 5600 5614 5626 5643
5762 5756 5751 5746 5739 5733 5728 5720 5711 5701 5684 5670 5657 5643 5629 5618 5603 5594 5585 5579 5572 5565 5558 5551 5543 5535 5531 5526 5522 5520 5518 5518 5522 5526 5523 5524 5525 5530 5539 5553 5570 5586 5597 5611 5629
5757 5752 5747 5741 5734 5727 5720 5712 5702 5690 5678 5663 5648 5633 5622 5611 5602 5589 5581 5576 5570 5562 5554 5548 5538 5528 5520 5518 5514 5512 5509 5510 5513 5516 5510 5513 5512 5518 5526 5539 5555 5570 5586 5598 5613
5752 5747 5742 5736 5729 5723 5715 5707 5694 5682 5669 5655 5641 5628 5613 5603 5593 5583 5576 5571 5565 5559 5552 5541 5531 5519 5511 5506 5503 5502 5502 5503 5503 5507 5505 5507 5504 5509 5517 5524 5536 5552 5571 5586 5602
5748 5742 5738 5731 5726 5717 5709 5699 5688 5674 5662 5649 5633 5619 5606 5594 5586 5576 5571 5568 5563 5554 5547 5533 5522 5511 5505 5498 5494 5489 5496 5493 5495 5497 5496 5497 5493 5500 5507 5510 5520 5537 5554 5574 5592
5744 5739 5734 5726 5720 5713 5705 5693 5682 5668 5654 5641 5627 5612 5598 5586 5578 5576 5567 5565 5560 5556 5542 5531 5518 5508 5502 5494 5489 5489 5488 5489 5489 5489 5488 5489 5488 5493 5497 5500 5511 5524 5543 5562 5578
5740 5735 5729 5723 5717 5709 5700 5689 5676 5664 5650 5639 5622 5609 5599 5583 5573 5570 5565 5561 5558 5554 5546 5528 5519 5509 5500 5492 5487 5486 5487 5486 5484 5483 5481 5484 5485 5483 5487 5492 5500 5513 5530 5549 5563
5736 5731 5726 5720 5713 5705 5696 5685 5673 5659 5647 5633 5619 5603 5589 5579 5572 5569 5565 5561 5554 5547 5542 5532 5521 5511 5503 5495 5489 5488 5486 5484 5482 5480 5480 5482 5478 5477 5478 5480 5488 5502 5517 5536 5553
5732 5728 5722 5717 5709 5701 5693 5682 5669 5656 5644 5630 5614 5600 5587 5581 5574 5569 5565 5562 5557 5550 5540 5526 5520 5513 5505 5498 5493 5488 5486 5482 5480 5480 5479 5479 5475 5473 5471 5470 5476 5493 5511 5528 5546
5729 5724 5719 5714 5707 5698 5690 5677 5663 5652 5638 5624 5613 5597 5589 5581 5574 5570 5566 5560 5554 5546 5538 5525 5521 5513 5507 5502 5498 5492 5489 5485 5482 5479 5475 5475 5474 5473 5470 5469 5471 5486 5503 5522 5538
5727 5721 5717 5712 5705 5697 5688 5675 5662 5650 5636 5622 5607 5594 5587 5581 5577 5572 5568 5563 5555 5547 5539 5531 5523 5516 5511 5504 5499 5494 5489 5487 5483 5479 5476 5475 5472 5469 5465 5468 5473 5482 5500 5518 5536
5723 5719 5714 5709 5703 5695 5686 5673 5660 5648 5635 5620 5607 5594 5587 5581 5578 5575 5571 5565 5558 5552 5541 5533 5525 5519 5513 5506 5499 5497 5492 5488 5483 5481 5478 5474 5472 5473 5469 5471 5480 5486 5501 5518 5537
5719 5716 5711 5707 5701 5692 5684 5671 5660 5649 5635 5621 5608 5595 5587 5584 5582 5578 5572 5564 5557 5547 5540 5533 5527 5521 5517 5510 5504 5497 5493 5486 5482 5481 5478 5478 5479 5479 5481 5485 5490 5496 5506 5518 5535
5717 5714 5709 5705 5699 5691 5682 5670 5660 5649 5637 5622 5609 5597 5591 5588 5586 5581 5575 5567 5559 5547 5538 5530 5526 5523 5517 5513 5507 5501 5494 5490 5488 5485 5481 5481 5483 5485 5489 5498 5504 5510 5518 5528 5538
5715 5712 5708 5704 5697 5689 5681 5670 5660 5651 5639 5624 5611 5601 5596 5593 5590 5585 5579 5571 5562 5553 5544 5534 5526 5522 5517 5511 5505 5500 5496 5494 5492 5491 5489 5488 5488 5494 5499 5506 5512 5520 5530 5540 5547
5712 5709 5706 5701 5695 5688 5680 5668 5660 5653 5641 5626 5611 5603 5600 5598 5595 5591 5584 5576 5567 5556 5543 5535 5529 5525 5521 5516 5510 5504 5502 5500 5498 5498 5499 5498 5499 5502 5508 5514 5519 5526 5535 5545 5554
5709 5707 5703 5699 5693 5686 5678 5668 5661 5653 5643 5630 5615 5607 5604 5601 5600 5596 5589 5582 5571 5558 5547 5539 5533 5530 5526 5522 5517 5512 5507 5503 5502 5505 5508 5509 5511 5511 5522 5523 5530 5537 5544 5552 5561
5705 5704 5701 5697 5691 5685 5677 5668 5662 5655 5645 5633 5619 5612 5608 5606 5605 5601 5593 5584 5573 5563 5551 5544 5540 5536 5532 5527 5524 5519 5511 5511 5510 5514 5517 5521 5520 5522 5532 5538 5544 5550 5558 5563 5568
Wind_Speed
18 19 21 25 26 28 31 31 32 35 36 36 38 40 43 45 47 51 53 55 56 57 58 59 61 61 62 62 61 60 58 53 50 54 51 54 53 55 53 53 50 46 48 43 37
19 21 24 26 28 28 29 31 32 34 36 39 41 45 48 51 52 53 56 59 61 62 64 65 67 68 69 69 69 67 63 57 58 58 57 58 60 58 56 54 53 51 51 47 39
20 22 23 26 28 30 32 33 34 36 39 43 48 51 53 54 55 58 60 63 67 69 71 72 74 75 76 77 76 73 68 65 63 63 61 64 63 61 59 58 54 53 54 49 54
24 26 27 28 30 33 35 35 36 40 45 48 51 53 55 57 61 65 66 69 72 73 72 71 71 75 78 79 77 79 75 71 70 67 66 66 67 65 62 57 58 55 58 52 47
26 28 29 29 31 33 35 36 38 43 47 53 53 55 57 61 64 68 72 73 71 67 63 60 55 54 57 61 63 71 73 72 74 73 72 71 68 67 61 60 61 59 57 59 50
28 28 30 31 32 35 37 38 44 46 52 53 56 59 61 64 69 70 70 66 62 55 43 38 35 37 38 38 42 47 55 65 69 72 73 75 72 71 59 61 61 64 61 62 49
30 31 33 33 34 36 39 43 47 50 53 55 57 60 62 63 66 68 63 58 51 38 35 36 36 36 36 33 35 39 45 48 57 60 66 70 75 70 66 64 64 65 64 66 63
30 32 35 35 35 37 40 45 50 52 54 57 60 60 62 63 65 63 55 56 38 35 34 33 36 37 40 40 36 36 38 39 39 44 56 63 75 71 73 68 69 67 68 67 60
32 34 35 35 36 39 43 47 50 52 55 57 59 60 62 63 62 58 57 43 33 30 30 34 33 29 28 32 33 30 33 32 33 33 41 51 75 72 74 77 69 71 71 69 62
32 35 34 35 35 40 44 49 51 52 55 57 56 63 65 61 58 52 51 34 31 30 30 32 28 22 21 26 26 26 30 29 31 23 33 43 66 66 71 74 74 74 73 73 65
34 36 35 35 37 42 45 49 50 53 57 58 58 61 61 58 55 45 40 27 29 33 35 31 33 32 31 26 27 29 30 31 24 22 31 35 45 55 69 75 77 75 79 77 74
35 35 35 36 40 44 47 50 50 55 57 58 59 60 60 56 55 41 33 27 28 32 38 35 43 40 36 32 32 30 31 29 18 17 30 35 39 42 52 70 72 75 81 80 75
36 33 35 37 42 44 48 50 53 57 59 59 61 60 61 55 52 39 33 27 32 34 40 50 44 37 34 35 35 33 32 28 27 21 28 28 40 41 44 60 71 77 80 82 78
34 31 34 38 42 45 48 49 54 58 61 62 63 62 61 54 50 39 32 27 33 41 46 50 42 36 32 31 30 35 30 32 28 28 32 25 33 27 38 50 66 77 84 82 81
32 31 34 39 42 46 49 49 54 58 63 65 62 64 57 52 49 27 29 26 34 36 51 42 41 37 33 28 21 24 23 24 26 28 33 34 40 18 22 42 60 76 82 84 83
29 31 34 39 42 45 48 49 55 58 60 60 62 63 54 48 35 24 26 29 33 36 47 37 37 38 33 26 20 19 17 21 23 19 30 25 33 27 18 27 44 61 78 85 84
26 30 35 39 42 46 48 50 55 56 60 62 64 63 55 38 23 21 24 29 38 46 48 29 33 34 34 27 18 16 15 17 18 18 19 17 28 19 15 14 37 54 72 83 83
26 30 35 37 41 46 48 50 54 58 61 62 67 58 44 31 22 25 27 30 37 43 46 39 34 33 29 25 22 16 14 13 14 15 18 19 11 8 12 16 33 39 60 80 82
25 30 34 37 40 45 47 50 54 58 62 66 66 54 36 32 32 30 29 35 41 46 49 49 32 28 28 23 20 21 20 17 17 15 18 17 21 8 12 14 32 38 53 78 82
25 28 32 36 40 44 46 48 52 57 61 65 65 49 32 33 31 30 30 36 38 45 48 46 34 34 30 18 20 18 23 21 24 28 27 26 16 26 5 12 31 37 43 68 78
24 28 31 35 39 43 45 48 52 57 62 66 62 42 33 27 27 26 31 35 39 42 44 43 34 33 31 29 26 27 27 26 27 30 30 24 27 15 5 14 23 29 34 53 71
22 29 29 35 38 42 44 47 52 56 61 65 59 36 35 25 27 29 32 39 42 46 45 41 28 26 27 27 27 28 29 30 26 20 19 17 19 10 25 25 24 32 34 38 56
22 28 29 33 37 39 42 45 51 56 60 64 56 29 29 27 25 29 37 42 43 48 46 41 33 21 23 27 27 29 25 25 19 23 29 26 23 19 29 21 21 30 27 23 38
20 26 28 31 35 37 40 44 49 55 59 62 54 20 23 27 29 32 39 41 43 39 42 34 25 22 28 28 32 30 28 24 19 23 28 25 25 24 21 16 23 32 36 21 28
19 25 27 30 35 35 39 43 48 53 57 60 51 21 25 26 28 33 37 39 38 41 42 28 13 17 25 24 24 26 22 21 18 20 24 37 23 30 22 18 26 36 40 35 30
19 23 25 28 32 33 37 41 46 52 56 58 45 21 24 26 26 35 33 39 40 43 33 25 14 15 19 23 21 21 21 20 26 29 23 26 23 39 31 20 35 26 34 30 30
18 22 23 26 30 31 35 39 45 48 53 56 44 17 21 25 26 31 38 39 45 41 37 26 13 13 19 23 23 27 34 33 35 30 26 25 35 42 24 30 24 30 25 20 33
Wind_Direction
338 338 332 330 323 320 317 313 311 311 310 309 309 307 305 302 301 299 296 293 290 287 283 279 276 273 270 268 266 261 257 258 256 251 250 250 246 241 237 233 227 226 230 231 229
335 329 328 325 324 320 315 315 315 315 313 315 315 313 311 309 305 300 298 296 293 289 285 280 275 272 268 265 263 261 258 253 250 247 244 245 244 239 240 236 234 230 228 227 219
331 326 330 330 329 322 321 320 319 319 320 318 316 314 311 309 306 305 303 299 295 291 284 277 272 267 264 262 260 258 255 250 246 245 242 241 242 241 239 237 232 230 229 224 225
328 332 334 332 332 328 323 320 323 323 321 318 315 314 313 312 312 310 307 305 302 297 291 283 276 269 264 262 259 254 251 248 246 243 241 240 240 238 236 236 237 231 229 225 223
329 333 333 333 331 326 322 322 321 323 320 320 319 317 317 317 317 316 314 311 307 303 301 295 290 282 275 271 266 260 255 248 243 240 238 237 237 237 234 233 236 233 232 228 226
329 332 334 333 330 326 322 323 324 324 323 322 321 322 323 323 323 321 319 317 316 315 310 303 298 289 284 278 275 265 258 254 248 242 238 235 234 235 230 233 232 236 229 228 222
329 334 335 333 331 327 327 327 325 326 324 324 325 327 328 329 327 326 325 325 322 315 311 305 303 298 292 285 278 275 269 257 250 245 244 240 230 230 228 231 227 229 230 231 223
332 335 334 332 333 330 331 329 328 327 325 329 330 330 333 334 333 330 328 330 324 319 315 307 300 297 293 288 282 278 275 270 254 254 244 243 228 224 232 225 226 225 227 229 227
332 333 334 332 331 332 332 330 327 327 330 333 333 332 338 339 336 332 334 337 333 331 323 318 319 315 299 291 281 274 275 267 258 253 250 245 230 226 230 229 223 224 224 224 223
333 332 333 331 331 332 332 330 330 331 334 335 337 338 340 342 337 336 339 344 343 342 334 330 334 324 301 286 290 281 278 273 266 249 252 245 238 234 230 225 221 221 221 222 219
332 333 334 330 331 332 332 330 331 333 338 341 338 340 341 342 339 338 343 344 337 338 336 332 325 305 302 297 298 293 286 275 267 259 257 251 245 239 232 226 224 219 218 221 217
333 333 332 330 332 333 333 332 334 337 342 343 343 341 339 340 341 340 347 343 335 338 339 338 334 323 312 295 286 282 279 279 281 259 256 248 249 245 234 230 224 219 217 218 216
331 332 331 332 332 335 332 334 337 340 345 346 344 340 340 340 340 343 346 342 342 348 345 338 332 316 299 286 281 278 275 272 267 252 258 268 258 253 236 228 225 218 213 216 218
331 332 330 333 335 334 334 337 339 343 343 348 344 342 341 339 341 343 340 342 349 348 344 339 337 329 331 317 284 275 261 263 266 257 252 254 281 263 248 231 222 215 213 211 215
329 330 332 333 335 335 336 338 341 345 344 345 345 343 343 339 335 338 343 348 349 359 349 344 347 346 350 340 318 300 286 280 277 267 263 251 263 277 265 237 223 215 212 210 211
327 328 333 334 336 336 336 339 344 345 347 346 347 343 341 337 335 350 352 352 350 359 354 348 351 353 357 353 327 314 298 298 296 281 277 276 256 287 278 239 227 221 209 209 211
327 330 332 333 335 337 336 341 346 348 347 349 347 345 346 349 354 359 6 353 352 351 357 352 354 352 357 10 345 339 327 312 296 289 309 282 268 335 310 246 219 218 210 208 209
329 328 333 334 336 338 337 343 347 349 350 350 349 348 353 6 7 14 13 3 351 351 3 358 348 357 353 23 26 26 4 343 327 323 320 301 304 305 273 206 198 208 213 205 208
326 329 332 334 336 337 339 345 349 350 352 352 351 352 2 10 14 21 4 4 357 358 8 8 5 357 354 0 10 17 2 348 344 334 333 348 348 333 18 219 180 195 208 203 205
322 329 331 334 337 337 341 345 350 353 354 353 353 353 360 0 13 18 3 5 5 2 3 6 5 3 6 351 355 0 337 335 330 326 337 1 29 348 315 227 177 183 197 202 204
322 327 330 334 337 340 342 348 352 355 355 354 356 357 356 2 19 8 6 2 5 5 7 2 2 7 6 4 356 344 335 325 320 323 331 13 20 33 21 149 170 159 172 197 202
323 328 332 336 338 340 344 350 354 356 356 354 359 4 3 35 25 13 3 3 6 5 6 360 10 2 359 356 356 350 345 5 10 17 30 13 30 65 98 97 112 138 156 178 198
326 330 334 336 338 341 347 351 354 357 357 355 3 12 21 33 21 11 7 10 7 3 1 357 5 1 351 353 354 351 17 15 12 24 40 36 66 121 108 105 107 110 114 151 184
319 331 334 335 337 345 348 353 355 358 358 358 4 26 31 35 23 15 13 12 5 3 359 357 0 5 2 350 353 9 25 26 32 36 47 47 79 103 115 131 146 131 125 131 157
312 328 330 335 340 346 350 355 356 358 1 0 4 38 47 37 25 20 20 15 6 4 0 5 4 9 8 7 7 13 19 37 52 76 61 80 84 94 119 124 136 137 129 130 147
308 322 328 335 339 347 352 356 356 358 2 4 8 45 48 43 26 27 20 14 13 9 16 14 26 6 9 35 33 35 41 38 67 92 86 81 72 104 101 111 120 114 124 135 152
299 316 324 334 339 348 352 355 355 359 2 6 12 56 56 49 30 24 17 14 19 24 13 18 20 28 51 56 64 69 63 72 84 93 101 101 91 94 91 116 115 119 120 131 139